Regional Weather Roundup
Issued by NWS

Home | Current Version | Previous Version | Text Only | Print | Product List | Glossary On
Versions: 1 2 3 4 5 6 7 8 9 10 11 12 13 14 15 16 17 18 19 20 21 22 23 24 25 26 27 28 29 30 31 32 33 34 35 36 37 38 39 40 41 42 43 44 45 46 47 48 49 50
000
ASUS42 KFFC 050010
RWRGA
WEATHER ROUNDUP FOR GEORGIA
NATIONAL WEATHER SERVICE PEACHTREE CITY GA
800 PM EDT TUE AUG 04 2015

NOTE: "FAIR" INDICATES FEW OR NO CLOUDS BELOW 12,000 FEET WITH NO
SIGNIFICANT WEATHER AND/OR OBSTRUCTIONS TO VISIBILITY.

* = USE WITH CAUTION. THE STATIONS MARKED WITH AN ASTERISK MAY NOT
REPORT WEATHER SUCH AS PRECIPITATION, FOG, OR THUNDER AND ARE NOT
QUALITY CONTROLLED BY NWS.

THE REMARK "TC" DENOTES TEMPERATURE READING IN DEGREES CELSIUS.

GAZ001>058-050100-
NORTH GEORGIA

CITY           SKY/WX    TMP DP  RH WIND       PRES   REMARKS
ATLANTA        PTCLDY    91  62  37 SW5       29.98R HX  91
6HR MIN TEMP:  91; 6HR MAX TEMP:  97;

ATHENS         CLEAR     94  60  32 CALM      29.97R HX  94
6HR MIN TEMP:  94; 6HR MAX TEMP: 100;

CHAMBLEE       CLEAR     93  58  30 S6        29.97R HX  92
6HR MIN TEMP:  92; 6HR MAX TEMP:  99;

PEACHTREE CITY CLEAR     86  71  60 CALM      29.97S HX  91
6HR MIN TEMP:  86; 6HR MAX TEMP:  98;

ROME           CLEAR     91  65  41 N6        29.94S HX  93
6HR MIN TEMP:  91; 6HR MAX TEMP:  99;

WEST ATLANTA   CLEAR     92  65  40 S6        29.96S HX  94
6HR MIN TEMP:  92; 6HR MAX TEMP:  96;

GAINESVILLE    CLEAR     93  57  29 N5        30.02R HX  91
6HR MIN TEMP:  92; 6HR MAX TEMP:  96;

CARTERSVILLE   CLEAR     86  69  56 S3        29.96R HX  90
6HR MIN TEMP:  86; 6HR MAX TEMP:  97;



CITY           SKY/WX    TMP DP  RH WIND       PRES   REMARKS
DALTON*        CLEAR     86  72  62 CALM      29.97S HX  92
LAWRENCEVILLE* CLEAR     91  57  31 CALM      29.97R HX  90
MARIETTA       PTCLDY    93  55  27 NW3       29.98R HX  91
KENNESAW*      CLEAR     93  55  27 CALM      29.99S HX  91
BLAIRSVILLE*     N/A     83  38  19 CALM      30.06S
$$

GAZ059>098-102>109-050100-
CENTRAL GEORGIA

CITY           SKY/WX    TMP DP  RH WIND       PRES   REMARKS
AUGUSTA-BUSH   PTCLDY    82  69  64 S5        29.93R
6HR MIN TEMP:  82; 6HR MAX TEMP: 100;

AUGUSTA-DANIEL PTCLDY    93  65  39 S6        29.96R HX  95
6HR MIN TEMP:  93; 6HR MAX TEMP: 100;

COLUMBUS       CLEAR     94  63  35 SW7       29.94R HX  95
6HR MIN TEMP:  94; 6HR MAX TEMP:  99;

MACON          CLEAR     90  66  45 SW6       29.96R HX  92
6HR MIN TEMP:  90; 6HR MAX TEMP: 100;

ROBINS AFB     CLEAR     92  68  44 SW7       29.95R HX  96


CITY           SKY/WX    TMP DP  RH WIND       PRES   REMARKS
LAGRANGE*      CLEAR     94  72  48 SW3       29.96S HX 102
SYLVANIA*      CLEAR     90  78  66 CALM      29.97R HX 104
MILLEDGEVILLE* CLEAR     90  68  48 CALM      29.96R HX  93
$$

GAZ099>101-110>166-050100-
SOUTH GEORGIA

CITY           SKY/WX    TMP DP  RH WIND       PRES   REMARKS
SAVANNAH       PTCLDY    86  77  74 S10       29.97R HX  97
6HR MIN TEMP:  86; 6HR MAX TEMP:  94;

VALDOSTA       NOT AVBL
ALMA           PTCLDY    79  72  79 S6        30.00R
6HR MIN TEMP:  79; 6HR MAX TEMP:  95;

ST SIMONS      CLOUDY    79  73  82 W9        29.99S
6HR MIN TEMP:  79; 6HR MAX TEMP:  89;

FT STEWART     PTCLDY    84  73  70 S2        29.95S HX  91
ALBANY         CLEAR     86  73  65 S7        30.01R HX  93
HUNTER AFB     CLEAR     86  81  83 SW10      29.95R HX 102
MOODY AFB      MOCLDY    82  74  77 S9        30.00F
BRUNSWICK      CLOUDY    79  73  83 SW9       30.00R


CITY           SKY/WX    TMP DP  RH WIND       PRES   REMARKS
BAINBRIDGE*    PTCLDY    86  73  66 SW5       30.00S HX  93
MOULTRIE*      CLEAR     84  72  65 S5        30.02R
VIDALIA*       CLEAR     86  72  62 S8        29.98S HX  92
WAYCROSS*      PTCLDY    81  76  85 CALM      30.00F
DOUGLAS*       MOCLDY    82  73  74 S3        30.01F
$$


USA.gov is the U.S. government's official web portal to all federal, state and local government web resources and services.